Time,TemperatureF,DewpointF,PressureIn,WindDirection,WindDirectionDegrees,WindSpeedMPH,WindSpeedGustMPH,Humidity,HourlyPrecipIn,Conditions,Clouds,dailyrainin,SoftwareType,DateUTC
2013-09-17 00:00:00,73.8,72.0,29.99,NNE,30,1.4,5.0,94,0.00,,,0.00,WUHU216DAVISVP2,2013-09-17 05:00:00,
2013-09-17 00:25:00,73.7,71.9,29.99,NNE,17,2.6,3.9,94,0.00,,,0.00,WUHU216DAVISVP2,2013-09-17 05:25:00,
2013-09-17 00:30:00,73.7,71.9,29.99,North,7,1.4,4.0,94,0.00,,,0.00,WUHU216DAVISVP2,2013-09-17 05:30:00,
2013-09-17 00:55:00,73.6,71.8,29.98,NNE,12,3.9,6.5,94,0.00,,,0.00,WUHU216DAVISVP2,2013-09-17 05:55:00,
2013-09-17 01:00:00,73.6,71.8,29.98,North,7,4.1,6.0,94,0.00,,,0.00,WUHU216DAVISVP2,2013-09-17 06:00:00,
2013-09-17 01:25:00,73.6,71.8,29.98,North,357,3.9,6.0,94,0.00,,,0.00,WUHU216DAVISVP2,2013-09-17 06:25:00,
2013-09-17 01:30:00,73.6,71.8,29.99,North,7,2.7,6.0,94,0.00,,,0.00,WUHU216DAVISVP2,2013-09-17 06:30:00,
2013-09-17 01:55:00,73.7,71.9,29.99,NNE,12,3.9,6.5,94,0.00,,,0.00,WUHU216DAVISVP2,2013-09-17 06:55:00,
2013-09-17 02:00:00,73.7,71.9,29.99,North,7,2.7,5.0,94,0.00,,,0.00,WUHU216DAVISVP2,2013-09-17 07:00:00,
2013-09-17 02:25:00,73.6,71.8,29.98,NNE,26,3.9,6.5,94,0.00,,,0.00,WUHU216DAVISVP2,2013-09-17 07:25:00,
2013-09-17 02:30:00,73.6,71.8,29.97,North,7,4.1,5.0,94,0.00,,,0.00,WUHU216DAVISVP2,2013-09-17 07:30:00,
2013-09-17 02:55:00,73.5,71.7,29.97,North,7,1.3,5.2,94,0.00,,,0.00,WUHU216DAVISVP2,2013-09-17 07:55:00,
2013-09-17 03:00:00,73.5,71.7,29.96,North,7,2.7,4.0,94,0.00,,,0.00,WUHU216DAVISVP2,2013-09-17 08:00:00,
2013-09-17 03:25:00,73.5,71.7,29.94,North,355,3.9,6.5,94,0.00,,,0.00,WUHU216DAVISVP2,2013-09-17 08:25:00,
2013-09-17 03:30:00,73.5,71.7,29.95,North,7,4.1,6.0,94,0.00,,,0.00,WUHU216DAVISVP2,2013-09-17 08:30:00,
2013-09-17 03:55:00,73.5,71.4,29.94,North,2,5.2,6.5,93,0.00,,,0.00,WUHU216DAVISVP2,2013-09-17 08:55:00,
2013-09-17 04:00:00,73.5,71.7,29.95,North,7,4.1,6.0,94,0.00,,,0.00,WUHU216DAVISVP2,2013-09-17 09:00:00,
2013-09-17 04:25:00,73.5,71.7,29.94,NNE,23,2.6,6.5,94,0.00,,,0.00,WUHU216DAVISVP2,2013-09-17 09:25:00,
2013-09-17 04:30:00,73.5,71.7,29.94,North,7,2.7,5.0,94,0.00,,,0.00,WUHU216DAVISVP2,2013-09-17 09:30:00,
2013-09-17 04:55:00,73.5,71.7,29.94,NNE,26,5.2,6.5,94,0.00,,,0.00,WUHU216DAVISVP2,2013-09-17 09:55:00,
2013-09-17 05:00:00,73.6,71.8,29.94,NNE,30,4.1,6.0,94,0.00,,,0.00,WUHU216DAVISVP2,2013-09-17 10:00:00,
2013-09-17 05:25:00,73.7,71.9,29.94,North,2,0.0,6.0,94,0.00,,,0.00,WUHU216DAVISVP2,2013-09-17 10:25:00,
2013-09-17 05:30:00,73.7,71.9,29.94,NNE,30,4.1,6.0,94,0.00,,,0.00,WUHU216DAVISVP2,2013-09-17 10:30:00,
2013-09-17 05:55:00,73.7,71.9,29.94,NNE,33,1.3,5.2,94,0.00,,,0.00,WUHU216DAVISVP2,2013-09-17 10:55:00,
2013-09-17 06:00:00,73.7,71.9,29.95,NNE,30,2.7,6.0,94,0.00,,,0.00,WUHU216DAVISVP2,2013-09-17 11:00:00,
2013-09-17 06:25:00,73.9,72.1,29.94,NNE,28,2.6,7.8,94,0.00,,,0.00,WUHU216DAVISVP2,2013-09-17 11:25:00,
2013-09-17 06:30:00,73.9,72.1,29.95,NNE,30,4.1,6.0,94,0.00,,,0.00,WUHU216DAVISVP2,2013-09-17 11:30:00,
2013-09-17 06:55:00,74.1,72.3,29.95,NNE,18,6.5,10.4,94,0.00,,,0.00,WUHU216DAVISVP2,2013-09-17 11:55:00,
2013-09-17 07:00:00,74.2,72.4,29.96,NNE,30,5.4,8.0,94,0.00,,,0.00,WUHU216DAVISVP2,2013-09-17 12:00:00,
2013-09-17 07:25:00,74.2,72.4,29.97,NNE,33,2.6,10.4,94,0.00,,,0.00,WUHU216DAVISVP2,2013-09-17 12:25:00,
2013-09-17 07:30:00,74.3,72.5,29.97,NNE,30,5.4,9.0,94,0.00,,,0.00,WUHU216DAVISVP2,2013-09-17 12:30:00,
2013-09-17 07:55:00,74.5,72.7,29.97,NNE,33,3.9,10.4,94,0.00,,,0.00,WUHU216DAVISVP2,2013-09-17 12:55:00,
2013-09-17 08:00:00,74.8,73.0,29.97,NNE,30,4.1,8.0,94,0.00,,,0.00,WUHU216DAVISVP2,2013-09-17 13:00:00,
2013-09-17 08:25:00,75.6,73.8,29.98,NE,53,3.9,8.0,94,0.00,,,0.00,WUHU216DAVISVP2,2013-09-17 13:25:00,
2013-09-17 08:30:00,75.9,74.0,29.98,NNE,30,2.7,10.0,94,0.00,,,0.00,WUHU216DAVISVP2,2013-09-17 13:30:00,
2013-09-17 08:55:00,77.1,75.0,29.99,ENE,62,5.2,11.0,93,0.00,,,0.00,WUHU216DAVISVP2,2013-09-17 13:55:00,
2013-09-17 09:00:00,77.3,75.1,29.99,NE,52,2.7,11.0,93,0.00,,,0.00,WUHU216DAVISVP2,2013-09-17 14:00:00,
2013-09-17 09:25:00,78.2,75.8,29.99,NE,45,0.0,9.1,92,0.00,,,0.00,WUHU216DAVISVP2,2013-09-17 14:25:00,
2013-09-17 09:30:00,78.4,75.9,29.99,NE,52,2.7,7.0,92,0.00,,,0.00,WUHU216DAVISVP2,2013-09-17 14:30:00,
2013-09-17 09:55:00,79.4,76.3,29.99,NE,53,1.3,7.8,90,0.00,,,0.00,WUHU216DAVISVP2,2013-09-17 14:55:00,
2013-09-17 10:00:00,79.5,76.0,29.99,NE,52,2.7,8.0,89,0.00,,,0.00,WUHU216DAVISVP2,2013-09-17 15:00:00,
2013-09-17 10:25:00,81.2,76.8,30.00,ENE,65,3.9,6.5,86,0.00,,,0.00,WUHU216DAVISVP2,2013-09-17 15:25:00,
2013-09-17 10:30:00,81.6,77.0,30.00,East,97,2.7,6.0,86,0.00,,,0.00,WUHU216DAVISVP2,2013-09-17 15:30:00,
2013-09-17 10:55:00,82.2,76.4,29.99,ESE,106,3.9,7.8,82,0.00,,,0.00,WUHU216DAVISVP2,2013-09-17 15:55:00,
2013-09-17 11:00:00,82.5,76.4,29.99,East,97,2.7,6.0,82,0.00,,,0.00,WUHU216DAVISVP2,2013-09-17 16:00:00,
2013-09-17 11:25:00,83.2,76.6,29.99,ESE,116,2.6,7.0,80,0.00,,,0.00,WUHU216DAVISVP2,2013-09-17 16:25:00,
2013-09-17 11:30:00,83.7,75.7,29.99,East,97,2.7,7.0,77,0.00,,,0.00,WUHU216DAVISVP2,2013-09-17 16:30:00,
2013-09-17 11:55:00,84.5,75.6,29.99,ENE,63,4.1,9.4,74,0.00,,,0.00,WUHU216DAVISVP2,2013-09-17 16:55:00,
2013-09-17 12:00:00,84.9,75.3,29.99,East,97,2.7,7.0,73,0.00,,,0.00,WUHU216DAVISVP2,2013-09-17 17:00:00,
2013-09-17 12:25:00,85.2,75.5,29.99,NE,49,2.7,8.1,72,0.00,,,0.00,WUHU216DAVISVP2,2013-09-17 17:25:00,
2013-09-17 12:30:00,85.2,73.9,29.98,East,97,2.7,6.0,69,0.00,,,0.00,WUHU216DAVISVP2,2013-09-17 17:30:00,
2013-09-17 12:55:00,86.2,74.8,29.97,NE,42,1.4,6.8,68,0.00,,,0.00,WUHU216DAVISVP2,2013-09-17 17:55:00,
2013-09-17 13:00:00,86.5,73.8,29.97,NE,52,2.7,11.0,66,0.00,,,0.00,WUHU216DAVISVP2,2013-09-17 18:00:00,
2013-09-17 13:25:00,86.7,74.8,29.96,East,93,2.7,8.0,67,0.00,,,0.00,WUHU216DAVISVP2,2013-09-17 18:25:00,
2013-09-17 13:30:00,86.6,74.3,29.95,ENE,75,2.7,8.0,67,0.00,,,0.00,WUHU216DAVISVP2,2013-09-17 18:30:00,
2013-09-17 13:55:00,86.9,74.1,29.93,East,97,2.7,9.4,65,0.00,,,0.00,WUHU216DAVISVP2,2013-09-17 18:55:00,
2013-09-17 14:00:00,87.0,73.3,29.93,East,97,4.1,7.0,64,0.00,,,0.00,WUHU216DAVISVP2,2013-09-17 19:00:00,
2013-09-17 14:25:00,87.2,73.0,29.92,East,100,4.1,10.8,62,0.00,,,0.00,WUHU216DAVISVP2,2013-09-17 19:25:00,
2013-09-17 14:30:00,87.3,72.7,29.92,ENE,75,4.1,9.0,62,0.00,,,0.00,WUHU216DAVISVP2,2013-09-17 19:30:00,
2013-09-17 14:56:00,86.9,73.7,29.91,East,101,4.1,9.0,64,0.00,,,0.00,WUHU216DAVISVP2,2013-09-17 19:56:00,
2013-09-17 15:00:00,87.1,73.4,29.91,East,97,4.1,9.0,64,0.00,,,0.00,WUHU216DAVISVP2,2013-09-17 20:00:00,
2013-09-17 15:26:00,87.9,73.7,29.90,East,95,4.1,8.1,62,0.00,,,0.00,WUHU216DAVISVP2,2013-09-17 20:26:00,
2013-09-17 15:30:00,88.3,73.6,29.90,East,97,2.7,7.0,62,0.00,,,0.00,WUHU216DAVISVP2,2013-09-17 20:30:00,
2013-09-17 15:56:00,90.4,74.1,29.89,ENE,68,1.4,6.8,58,0.00,,,0.00,WUHU216DAVISVP2,2013-09-17 20:56:00,
2013-09-17 16:00:00,90.0,73.7,29.89,East,97,2.7,6.0,59,0.00,,,0.00,WUHU216DAVISVP2,2013-09-17 21:00:00,
2013-09-17 16:26:00,88.8,74.1,29.88,ENE,77,4.1,6.8,61,0.00,,,0.00,WUHU216DAVISVP2,2013-09-17 21:26:00,
2013-09-17 16:30:00,88.8,73.1,29.87,East,97,2.7,7.0,60,0.00,,,0.00,WUHU216DAVISVP2,2013-09-17 21:30:00,
2013-09-17 16:56:00,84.0,70.9,29.88,ENE,60,5.4,24.3,64,0.00,,,0.00,WUHU216DAVISVP2,2013-09-17 21:56:00,
2013-09-17 17:00:00,83.2,70.7,29.89,NE,52,9.4,19.0,66,0.00,,,0.00,WUHU216DAVISVP2,2013-09-17 22:00:00,
2013-09-17 17:26:00,84.4,70.8,29.88,East,92,4.1,13.0,63,0.00,,,0.00,WUHU216DAVISVP2,2013-09-17 22:26:00,
2013-09-17 17:30:00,84.4,70.0,29.88,East,97,5.4,13.0,62,0.00,,,0.00,WUHU216DAVISVP2,2013-09-17 22:30:00,
2013-09-17 17:56:00,84.1,70.6,29.89,East,91,6.8,6.8,63,0.00,,,0.00,WUHU216DAVISVP2,2013-09-17 22:56:00,
2013-09-17 18:00:00,84.1,70.6,29.89,East,97,2.7,5.0,64,0.00,,,0.00,WUHU216DAVISVP2,2013-09-17 23:00:00,
2013-09-17 18:26:00,83.8,72.1,29.89,East,100,1.4,5.0,67,0.00,,,0.00,WUHU216DAVISVP2,2013-09-17 23:26:00,
2013-09-17 18:30:00,83.6,71.5,29.89,East,97,1.4,5.0,67,0.00,,,0.00,WUHU216DAVISVP2,2013-09-17 23:30:00,
2013-09-17 18:56:00,83.2,71.9,29.89,East,95,1.4,4.1,68,0.00,,,0.00,WUHU216DAVISVP2,2013-09-17 23:56:00,
2013-09-17 19:00:00,83.0,71.3,29.89,East,97,2.7,5.0,68,0.00,,,0.00,WUHU216DAVISVP2,2013-09-18 00:00:00,
2013-09-17 19:26:00,82.3,71.5,29.89,East,79,1.4,3.0,69,0.00,,,0.00,WUHU216DAVISVP2,2013-09-18 00:26:00,
2013-09-17 19:30:00,82.1,71.3,29.89,ENE,75,1.4,3.0,70,0.00,,,0.00,WUHU216DAVISVP2,2013-09-18 00:30:00,
2013-09-17 19:56:00,81.1,71.9,29.90,ESE,114,0.0,2.0,73,0.00,,,0.00,WUHU216DAVISVP2,2013-09-18 00:56:00,
2013-09-17 20:00:00,80.9,71.8,29.90,ESE,120,0.0,2.0,74,0.00,,,0.00,WUHU216DAVISVP2,2013-09-18 01:00:00,
2013-09-17 20:26:00,80.2,72.2,29.91,ESE,114,0.0,1.4,76,0.00,,,0.00,WUHU216DAVISVP2,2013-09-18 01:26:00,
2013-09-17 20:30:00,80.0,72.1,29.91,ESE,120,0.0,1.0,77,0.00,,,0.00,WUHU216DAVISVP2,2013-09-18 01:30:00,
2013-09-17 20:56:00,79.8,72.6,29.92,SE,128,0.0,2.7,78,0.00,,,0.00,WUHU216DAVISVP2,2013-09-18 01:56:00,
2013-09-17 21:00:00,79.7,72.2,29.92,ESE,120,0.0,2.0,78,0.00,,,0.00,WUHU216DAVISVP2,2013-09-18 02:00:00,
2013-09-17 21:26:00,79.5,72.6,29.93,SSE,148,2.7,5.4,79,0.00,,,0.00,WUHU216DAVISVP2,2013-09-18 02:26:00,
2013-09-17 21:30:00,79.6,72.5,29.93,SE,142,1.4,4.0,79,0.00,,,0.00,WUHU216DAVISVP2,2013-09-18 02:30:00,
2013-09-17 21:56:00,79.4,72.9,29.93,SE,139,0.0,3.0,80,0.00,,,0.00,WUHU216DAVISVP2,2013-09-18 02:56:00,
2013-09-17 22:00:00,79.4,72.7,29.93,SE,142,1.4,3.0,80,0.00,,,0.00,WUHU216DAVISVP2,2013-09-18 03:00:00,
2013-09-17 22:26:00,78.9,72.8,29.95,ESE,121,0.0,3.0,81,0.00,,,0.00,WUHU216DAVISVP2,2013-09-18 03:26:00,
2013-09-17 22:30:00,78.8,72.5,29.95,ESE,120,0.0,3.0,81,0.00,,,0.00,WUHU216DAVISVP2,2013-09-18 03:30:00,
2013-09-17 22:56:00,78.4,72.6,29.95,ESE,109,0.0,1.0,82,0.00,,,0.00,WUHU216DAVISVP2,2013-09-18 03:56:00,
2013-09-17 23:00:00,78.3,72.3,29.95,ESE,120,0.0,1.0,82,0.00,,,0.00,WUHU216DAVISVP2,2013-09-18 04:00:00,
2013-09-17 23:26:00,77.9,72.5,29.95,ESE,109,0.0,0.0,83,0.00,,,0.00,WUHU216DAVISVP2,2013-09-18 04:26:00,
2013-09-17 23:30:00,77.7,72.5,29.95,North,7,0.0,0.0,84,0.00,,,0.00,WUHU216DAVISVP2,2013-09-18 04:30:00,
2013-09-17 23:56:00,77.2,72.5,29.95,ESE,109,0.0,0.0,85,0.00,,,0.00,WUHU216DAVISVP2,2013-09-18 04:56:00,